owner,sensor,date,latitude,longitude,vertical_datum,mass_concentration_of_oxygen_in_sea_water,qcFlag 
DISL,ioos:station:DISL:DISL:1,2009-05-01T00:00:00Z,30.2513,-88.0778,6.662,9.56,1111122 
DISL,ioos:station:DISL:DISL:1,2009-05-01T00:30:00Z,30.2513,-88.0778,6.581,9.38,1111122 
DISL,ioos:station:DISL:DISL:1,2009-05-01T01:00:00Z,30.2513,-88.0778,6.512,9.0,1111122 
DISL,ioos:station:DISL:DISL:1,2009-05-01T01:30:00Z,30.2513,-88.0778,6.439,8.46,1111122 
DISL,ioos:station:DISL:DISL:1,2009-05-01T02:00:00Z,30.2513,-88.0778,6.351,8.28,1111122 
DISL,ioos:station:DISL:DISL:1,2009-05-01T02:30:00Z,30.2513,-88.0778,6.31,8.41,1111122 
DISL,ioos:station:DISL:DISL:1,2009-05-01T03:00:00Z,30.2513,-88.0778,6.201,8.14,1111122 
DISL,ioos:station:DISL:DISL:1,2009-05-01T03:30:00Z,30.2513,-88.0778,6.092,7.84,1111122 
DISL,ioos:station:DISL:DISL:1,2009-05-01T04:00:00Z,30.2513,-88.0778,6.023,7.87,1111122 
DISL,ioos:station:DISL:DISL:1,2009-05-01T04:30:00Z,30.2513,-88.0778,5.947,8.1,1111122 
DISL,ioos:station:DISL:DISL:1,2009-05-01T05:00:00Z,30.2513,-88.0778,5.906,8.36,1111122 
DISL,ioos:station:DISL:DISL:1,2009-05-01T05:30:00Z,30.2513,-88.0778,5.859,8.23,1111122 
DISL,ioos:station:DISL:DISL:1,2009-05-01T06:00:00Z,30.2513,-88.0778,5.767,8.11,1111122 
DISL,ioos:station:DISL:DISL:1,2009-05-01T06:30:00Z,30.2513,-88.0778,5.736,7.73,1111122 
DISL,ioos:station:DISL:DISL:1,2009-05-01T07:00:00Z,30.2513,-88.0778,5.644,7.08,1111122 
DISL,ioos:station:DISL:DISL:1,2009-05-01T07:30:00Z,30.2513,-88.0778,5.662,7.32,1111122 
DISL,ioos:station:DISL:DISL:1,2009-05-01T08:00:00Z,30.2513,-88.0778,5.65,6.32,1111122 
DISL,ioos:station:DISL:DISL:1,2009-05-01T08:30:00Z,30.2513,-88.0778,5.644,6.23,1111122 
DISL,ioos:station:DISL:DISL:1,2009-05-01T09:00:00Z,30.2513,-88.0778,5.658,6.43,1111122 
DISL,ioos:station:DISL:DISL:1,2009-05-01T09:30:00Z,30.2513,-88.0778,5.702,6.03,1111122 
DISL,ioos:station:DISL:DISL:1,2009-05-01T10:00:00Z,30.2513,-88.0778,5.749,6.26,1111122 
DISL,ioos:station:DISL:DISL:1,2009-05-01T10:30:00Z,30.2513,-88.0778,5.844,6.4,1111122 
DISL,ioos:station:DISL:DISL:1,2009-05-01T11:00:00Z,30.2513,-88.0778,5.909,6.36,1111122 
DISL,ioos:station:DISL:DISL:1,2009-05-01T11:30:00Z,30.2513,-88.0778,6.008,6.0,1111122 
DISL,ioos:station:DISL:DISL:1,2009-05-01T12:00:00Z,30.2513,-88.0778,6.137,6.54,1111122 
DISL,ioos:station:DISL:DISL:1,2009-05-01T12:30:00Z,30.2513,-88.0778,6.21,7.56,1111122 
DISL,ioos:station:DISL:DISL:1,2009-05-01T13:00:00Z,30.2513,-88.0778,6.326,7.49,1111122 
DISL,ioos:station:DISL:DISL:1,2009-05-01T13:30:00Z,30.2513,-88.0778,6.616,6.87,1111122 
DISL,ioos:station:DISL:DISL:1,2009-05-01T14:00:00Z,30.2513,-88.0778,6.479,6.48,1111122 
DISL,ioos:station:DISL:DISL:1,2009-05-01T14:30:00Z,30.2513,-88.0778,6.539,6.37,1111122 
DISL,ioos:station:DISL:DISL:1,2009-05-01T15:00:00Z,30.2513,-88.0778,6.59,6.59,1111122 
DISL,ioos:station:DISL:DISL:1,2009-05-01T15:30:00Z,30.2513,-88.0778,6.654,6.5,1111122 
DISL,ioos:station:DISL:DISL:1,2009-05-01T16:00:00Z,30.2513,-88.0778,6.72,7.28,1111122 
DISL,ioos:station:DISL:DISL:1,2009-05-01T16:30:00Z,30.2513,-88.0778,6.763,7.27,1111122 
DISL,ioos:station:DISL:DISL:1,2009-05-01T17:00:00Z,30.2513,-88.0778,6.838,6.52,1111122 
DISL,ioos:station:DISL:DISL:1,2009-05-01T17:30:00Z,30.2513,-88.0778,6.841,7.46,1111122 
DISL,ioos:station:DISL:DISL:1,2009-05-01T18:00:00Z,30.2513,-88.0778,6.896,7.92,1111122 
DISL,ioos:station:DISL:DISL:1,2009-05-01T18:30:00Z,30.2513,-88.0778,6.859,8.17,1111122 
DISL,ioos:station:DISL:DISL:1,2009-05-01T19:00:00Z,30.2513,-88.0778,6.862,7.18,1111122 
DISL,ioos:station:DISL:DISL:1,2009-05-01T19:30:00Z,30.2513,-88.0778,6.928,7.72,1111122 
DISL,ioos:station:DISL:DISL:1,2009-05-01T20:00:00Z,30.2513,-88.0778,7.02,8.99,1111122 
DISL,ioos:station:DISL:DISL:1,2009-05-01T20:30:00Z,30.2513,-88.0778,6.763,8.68,1111122 
DISL,ioos:station:DISL:DISL:1,2009-05-01T21:00:00Z,30.2513,-88.0778,6.749,8.89,1111122 
DISL,ioos:station:DISL:DISL:1,2009-05-01T21:30:00Z,30.2513,-88.0778,6.68,8.92,1111122 
DISL,ioos:station:DISL:DISL:1,2009-05-01T22:00:00Z,30.2513,-88.0778,6.63,9.07,1111122 
DISL,ioos:station:DISL:DISL:1,2009-05-01T22:30:00Z,30.2513,-88.0778,6.589,8.58,1111122 
DISL,ioos:station:DISL:DISL:1,2009-05-01T23:00:00Z,30.2513,-88.0778,6.588,7.94,1111122 
DISL,ioos:station:DISL:DISL:1,2009-05-01T23:30:00Z,30.2513,-88.0778,6.542,8.54,1111122 
DISL,ioos:station:DISL:DISL:1,2009-05-02T00:00:00Z,30.2513,-88.0778,6.443,9.22,1111122 
DISL,ioos:station:DISL:DISL:1,2009-05-02T00:30:00Z,30.2513,-88.0778,6.356,8.66,1111122 
DISL,ioos:station:DISL:DISL:1,2009-05-02T01:00:00Z,30.2513,-88.0778,6.279,8.53,1111122 
DISL,ioos:station:DISL:DISL:1,2009-05-02T01:30:00Z,30.2513,-88.0778,6.236,7.65,1111122 
DISL,ioos:station:DISL:DISL:1,2009-05-02T02:00:00Z,30.2513,-88.0778,6.191,6.93,1111122 
DISL,ioos:station:DISL:DISL:1,2009-05-02T02:30:00Z,30.2513,-88.0778,6.136,6.82,1111122 
DISL,ioos:station:DISL:DISL:1,2009-05-02T03:00:00Z,30.2513,-88.0778,6.199,7.02,1111122 
DISL,ioos:station:DISL:DISL:1,2009-05-02T03:30:00Z,30.2513,-88.0778,6.162,6.68,1111122 
DISL,ioos:station:DISL:DISL:1,2009-05-02T04:00:00Z,30.2513,-88.0778,6.11,6.61,1111122 
DISL,ioos:station:DISL:DISL:1,2009-05-02T04:30:00Z,30.2513,-88.0778,6.055,6.56,1111122 
DISL,ioos:station:DISL:DISL:1,2009-05-02T05:00:00Z,30.2513,-88.0778,6.0,6.78,1111122 
DISL,ioos:station:DISL:DISL:1,2009-05-02T05:30:00Z,30.2513,-88.0778,5.938,6.87,1111122 
DISL,ioos:station:DISL:DISL:1,2009-05-02T06:00:00Z,30.2513,-88.0778,5.868,6.7,1111122 
DISL,ioos:station:DISL:DISL:1,2009-05-02T06:30:00Z,30.2513,-88.0778,5.823,6.96,1111122 
DISL,ioos:station:DISL:DISL:1,2009-05-02T07:00:00Z,30.2513,-88.0778,5.762,6.72,1111122 
DISL,ioos:station:DISL:DISL:1,2009-05-02T07:30:00Z,30.2513,-88.0778,5.719,6.72,1111122 
DISL,ioos:station:DISL:DISL:1,2009-05-02T08:00:00Z,30.2513,-88.0778,5.687,7.52,1111122 
DISL,ioos:station:DISL:DISL:1,2009-05-02T08:30:00Z,30.2513,-88.0778,5.652,7.24,1111122 
DISL,ioos:station:DISL:DISL:1,2009-05-02T09:00:00Z,30.2513,-88.0778,5.632,7.28,1111122 
DISL,ioos:station:DISL:DISL:1,2009-05-02T09:30:00Z,30.2513,-88.0778,5.66,6.46,1111122 
DISL,ioos:station:DISL:DISL:1,2009-05-02T10:00:00Z,30.2513,-88.0778,5.696,6.2,1111122 
DISL,ioos:station:DISL:DISL:1,2009-05-02T10:30:00Z,30.2513,-88.0778,5.648,6.8,1111122 
DISL,ioos:station:DISL:DISL:1,2009-05-02T11:00:00Z,30.2513,-88.0778,5.757,7.02,1111122 
DISL,ioos:station:DISL:DISL:1,2009-05-02T11:30:00Z,30.2513,-88.0778,5.764,6.7,1111122 
DISL,ioos:station:DISL:DISL:1,2009-05-02T12:00:00Z,30.2513,-88.0778,5.832,6.81,1111122 
DISL,ioos:station:DISL:DISL:1,2009-05-02T12:30:00Z,30.2513,-88.0778,5.967,7.19,1111122 
DISL,ioos:station:DISL:DISL:1,2009-05-02T13:00:00Z,30.2513,-88.0778,5.987,6.14,1111122 
DISL,ioos:station:DISL:DISL:1,2009-05-02T13:30:00Z,30.2513,-88.0778,6.109,6.51,1111122 
DISL,ioos:station:DISL:DISL:1,2009-05-02T14:00:00Z,30.2513,-88.0778,6.14,6.35,1111122 
DISL,ioos:station:DISL:DISL:1,2009-05-02T14:30:00Z,30.2513,-88.0778,6.241,6.11,1111122 
DISL,ioos:station:DISL:DISL:1,2009-05-02T15:00:00Z,30.2513,-88.0778,6.243,6.05,1111122 
DISL,ioos:station:DISL:DISL:1,2009-05-02T15:30:00Z,30.2513,-88.0778,6.278,7.1,1111122 
DISL,ioos:station:DISL:DISL:1,2009-05-02T16:00:00Z,30.2513,-88.0778,6.304,6.74,1111122 
DISL,ioos:station:DISL:DISL:1,2009-05-02T16:30:00Z,30.2513,-88.0778,6.292,7.24,1111122 
DISL,ioos:station:DISL:DISL:1,2009-05-02T17:00:00Z,30.2513,-88.0778,6.333,6.68,1111122 
DISL,ioos:station:DISL:DISL:1,2009-05-02T17:30:00Z,30.2513,-88.0778,6.405,7.79,1111122 
DISL,ioos:station:DISL:DISL:1,2009-05-02T18:00:00Z,30.2513,-88.0778,6.387,7.56,1111122 
DISL,ioos:station:DISL:DISL:1,2009-05-02T18:30:00Z,30.2513,-88.0778,6.42,6.84,1111122 
DISL,ioos:station:DISL:DISL:1,2009-05-02T19:00:00Z,30.2513,-88.0778,6.43,7.21,1111122 
DISL,ioos:station:DISL:DISL:1,2009-05-02T19:30:00Z,30.2513,-88.0778,6.458,6.8,1111122 
DISL,ioos:station:DISL:DISL:1,2009-05-02T20:00:00Z,30.2513,-88.0778,6.474,7.0,1111122 
DISL,ioos:station:DISL:DISL:1,2009-05-02T20:30:00Z,30.2513,-88.0778,6.436,8.05,1111122 
DISL,ioos:station:DISL:DISL:1,2009-05-02T21:00:00Z,30.2513,-88.0778,6.395,8.49,1111122 
DISL,ioos:station:DISL:DISL:1,2009-05-02T21:30:00Z,30.2513,-88.0778,6.359,8.68,1111122 
DISL,ioos:station:DISL:DISL:1,2009-05-02T22:00:00Z,30.2513,-88.0778,6.316,8.7,1111122 
DISL,ioos:station:DISL:DISL:1,2009-05-02T22:30:00Z,30.2513,-88.0778,6.251,8.39,1111122 
DISL,ioos:station:DISL:DISL:1,2009-05-02T23:00:00Z,30.2513,-88.0778,6.301,7.88,1111122 
DISL,ioos:station:DISL:DISL:1,2009-05-02T23:30:00Z,30.2513,-88.0778,6.48,8.89,1111122 
DISL,ioos:station:DISL:DISL:1,2009-05-03T00:00:00Z,30.2513,-88.0778,6.288,5.43,1111122 
DISL,ioos:station:DISL:DISL:1,2009-05-03T00:30:00Z,30.2513,-88.0778,6.394,4.53,1111122 
DISL,ioos:station:DISL:DISL:1,2009-05-03T01:00:00Z,30.2513,-88.0778,6.427,4.67,1111122 
DISL,ioos:station:DISL:DISL:1,2009-05-03T01:30:00Z,30.2513,-88.0778,6.378,4.44,1111122 
DISL,ioos:station:DISL:DISL:1,2009-05-03T02:00:00Z,30.2513,-88.0778,6.413,4.89,1111122 
DISL,ioos:station:DISL:DISL:1,2009-05-03T02:30:00Z,30.2513,-88.0778,6.394,4.26,1111122 
DISL,ioos:station:DISL:DISL:1,2009-05-03T03:00:00Z,30.2513,-88.0778,6.279,4.6,1111122 
DISL,ioos:station:DISL:DISL:1,2009-05-03T03:30:00Z,30.2513,-88.0778,6.263,4.82,1111122 
DISL,ioos:station:DISL:DISL:1,2009-05-03T04:00:00Z,30.2513,-88.0778,6.23,4.87,1111122 
DISL,ioos:station:DISL:DISL:1,2009-05-03T04:30:00Z,30.2513,-88.0778,6.215,4.98,1111122 
DISL,ioos:station:DISL:DISL:1,2009-05-03T05:00:00Z,30.2513,-88.0778,6.203,5.11,1111122 
DISL,ioos:station:DISL:DISL:1,2009-05-03T05:30:00Z,30.2513,-88.0778,6.175,4.9,1111122 
DISL,ioos:station:DISL:DISL:1,2009-05-03T06:00:00Z,30.2513,-88.0778,6.178,4.49,1111122 
DISL,ioos:station:DISL:DISL:1,2009-05-03T06:30:00Z,30.2513,-88.0778,6.211,4.32,1111122 
DISL,ioos:station:DISL:DISL:1,2009-05-03T07:00:00Z,30.2513,-88.0778,6.157,4.3,1111122 
DISL,ioos:station:DISL:DISL:1,2009-05-03T07:30:00Z,30.2513,-88.0778,6.126,4.37,1111122 
DISL,ioos:station:DISL:DISL:1,2009-05-03T08:00:00Z,30.2513,-88.0778,6.063,5.33,1111122 
DISL,ioos:station:DISL:DISL:1,2009-05-03T08:30:00Z,30.2513,-88.0778,6.017,5.14,1111122 
DISL,ioos:station:DISL:DISL:1,2009-05-03T09:00:00Z,30.2513,-88.0778,6.026,4.63,1111122 
DISL,ioos:station:DISL:DISL:1,2009-05-03T09:30:00Z,30.2513,-88.0778,5.988,4.84,1111122 
DISL,ioos:station:DISL:DISL:1,2009-05-03T10:00:00Z,30.2513,-88.0778,5.96,4.66,1111122 
DISL,ioos:station:DISL:DISL:1,2009-05-03T10:30:00Z,30.2513,-88.0778,5.939,4.49,1111122 
DISL,ioos:station:DISL:DISL:1,2009-05-03T11:00:00Z,30.2513,-88.0778,6.038,4.3,1111122 
DISL,ioos:station:DISL:DISL:1,2009-05-03T11:30:00Z,30.2513,-88.0778,6.056,4.43,1111122 
DISL,ioos:station:DISL:DISL:1,2009-05-03T12:00:00Z,30.2513,-88.0778,6.142,4.01,1111122 
DISL,ioos:station:DISL:DISL:1,2009-05-03T12:30:00Z,30.2513,-88.0778,6.194,4.6,1111122 
DISL,ioos:station:DISL:DISL:1,2009-05-03T13:00:00Z,30.2513,-88.0778,6.249,4.25,1111122 
DISL,ioos:station:DISL:DISL:1,2009-05-03T13:30:00Z,30.2513,-88.0778,6.265,6.48,1111122 
DISL,ioos:station:DISL:DISL:1,2009-05-03T14:00:00Z,30.2513,-88.0778,6.336,6.99,1111122 
DISL,ioos:station:DISL:DISL:1,2009-05-03T14:30:00Z,30.2513,-88.0778,6.38,6.3,1111122 
DISL,ioos:station:DISL:DISL:1,2009-05-03T15:00:00Z,30.2513,-88.0778,6.452,6.63,1111122 
DISL,ioos:station:DISL:DISL:1,2009-05-03T15:30:00Z,30.2513,-88.0778,6.45,7.12,1111122 
DISL,ioos:station:DISL:DISL:1,2009-05-03T16:00:00Z,30.2513,-88.0778,6.399,7.31,1111122 
DISL,ioos:station:DISL:DISL:1,2009-05-03T16:30:00Z,30.2513,-88.0778,6.405,7.67,1111122 
DISL,ioos:station:DISL:DISL:1,2009-05-03T17:00:00Z,30.2513,-88.0778,6.436,7.22,1111122 
DISL,ioos:station:DISL:DISL:1,2009-05-03T17:30:00Z,30.2513,-88.0778,6.393,8.0,1111122 
DISL,ioos:station:DISL:DISL:1,2009-05-03T18:00:00Z,30.2513,-88.0778,6.386,8.15,1111122 
DISL,ioos:station:DISL:DISL:1,2009-05-03T18:30:00Z,30.2513,-88.0778,6.398,8.59,1111122 
DISL,ioos:station:DISL:DISL:1,2009-05-03T19:00:00Z,30.2513,-88.0778,6.359,8.68,1111122 
DISL,ioos:station:DISL:DISL:1,2009-05-03T19:30:00Z,30.2513,-88.0778,6.343,8.92,1111122 
DISL,ioos:station:DISL:DISL:1,2009-05-03T20:00:00Z,30.2513,-88.0778,6.274,8.92,1111122 
DISL,ioos:station:DISL:DISL:1,2009-05-03T20:30:00Z,30.2513,-88.0778,6.246,8.15,1111122 
DISL,ioos:station:DISL:DISL:1,2009-05-03T21:00:00Z,30.2513,-88.0778,6.231,8.11,1111122 
DISL,ioos:station:DISL:DISL:1,2009-05-03T21:30:00Z,30.2513,-88.0778,6.271,6.32,1111122 
DISL,ioos:station:DISL:DISL:1,2009-05-03T22:00:00Z,30.2513,-88.0778,6.213,8.82,1111122 
DISL,ioos:station:DISL:DISL:1,2009-05-03T22:30:00Z,30.2513,-88.0778,6.3,9.2,1111122 
DISL,ioos:station:DISL:DISL:1,2009-05-03T23:00:00Z,30.2513,-88.0778,6.157,9.1,1111122 
DISL,ioos:station:DISL:DISL:1,2009-05-03T23:30:00Z,30.2513,-88.0778,6.116,7.73,1111122 
DISL,ioos:station:DISL:DISL:1,2009-05-04T00:00:00Z,30.2513,-88.0778,6.113,8.13,1111122 
DISL,ioos:station:DISL:DISL:1,2009-05-04T00:30:00Z,30.2513,-88.0778,6.191,8.21,1111122 
DISL,ioos:station:DISL:DISL:1,2009-05-04T01:00:00Z,30.2513,-88.0778,6.073,8.72,1111122 
DISL,ioos:station:DISL:DISL:1,2009-05-04T01:30:00Z,30.2513,-88.0778,5.933,8.55,1111122 
DISL,ioos:station:DISL:DISL:1,2009-05-04T02:00:00Z,30.2513,-88.0778,5.876,8.51,1111122 
DISL,ioos:station:DISL:DISL:1,2009-05-04T02:30:00Z,30.2513,-88.0778,5.849,7.81,1111122 
DISL,ioos:station:DISL:DISL:1,2009-05-04T03:00:00Z,30.2513,-88.0778,5.906,8.1,1111122 
DISL,ioos:station:DISL:DISL:1,2009-05-04T03:30:00Z,30.2513,-88.0778,5.979,7.58,1111122 
DISL,ioos:station:DISL:DISL:1,2009-05-04T04:00:00Z,30.2513,-88.0778,5.897,8.0,1111122 
DISL,ioos:station:DISL:DISL:1,2009-05-04T04:30:00Z,30.2513,-88.0778,5.918,7.81,1111122 
DISL,ioos:station:DISL:DISL:1,2009-05-04T05:00:00Z,30.2513,-88.0778,5.946,8.35,1111122 
DISL,ioos:station:DISL:DISL:1,2009-05-04T05:30:00Z,30.2513,-88.0778,6.042,8.26,1111122 
DISL,ioos:station:DISL:DISL:1,2009-05-04T06:00:00Z,30.2513,-88.0778,6.087,7.93,1111122 
DISL,ioos:station:DISL:DISL:1,2009-05-04T06:30:00Z,30.2513,-88.0778,6.183,7.87,1111122 
DISL,ioos:station:DISL:DISL:1,2009-05-04T07:00:00Z,30.2513,-88.0778,6.166,7.67,1111122 
DISL,ioos:station:DISL:DISL:1,2009-05-04T07:30:00Z,30.2513,-88.0778,6.125,7.51,1111122 
DISL,ioos:station:DISL:DISL:1,2009-05-04T08:00:00Z,30.2513,-88.0778,6.139,6.65,1111122 
DISL,ioos:station:DISL:DISL:1,2009-05-04T08:30:00Z,30.2513,-88.0778,6.138,5.91,1111122 
DISL,ioos:station:DISL:DISL:1,2009-05-04T09:00:00Z,30.2513,-88.0778,6.195,7.08,1111122 
DISL,ioos:station:DISL:DISL:1,2009-05-04T09:30:00Z,30.2513,-88.0778,6.203,7.33,1111122 
DISL,ioos:station:DISL:DISL:1,2009-05-04T10:00:00Z,30.2513,-88.0778,6.257,7.46,1111122 
DISL,ioos:station:DISL:DISL:1,2009-05-04T10:30:00Z,30.2513,-88.0778,6.252,7.41,1111122 
DISL,ioos:station:DISL:DISL:1,2009-05-04T11:00:00Z,30.2513,-88.0778,6.3,7.31,1111122 
DISL,ioos:station:DISL:DISL:1,2009-05-04T11:30:00Z,30.2513,-88.0778,6.366,6.98,1111122 
DISL,ioos:station:DISL:DISL:1,2009-05-04T12:00:00Z,30.2513,-88.0778,6.354,7.17,1111122 
DISL,ioos:station:DISL:DISL:1,2009-05-04T12:30:00Z,30.2513,-88.0778,6.313,6.78,1111122 
DISL,ioos:station:DISL:DISL:1,2009-05-04T13:00:00Z,30.2513,-88.0778,6.322,6.78,1111122 
DISL,ioos:station:DISL:DISL:1,2009-05-04T13:30:00Z,30.2513,-88.0778,6.477,7.11,1111122 
DISL,ioos:station:DISL:DISL:1,2009-05-04T14:00:00Z,30.2513,-88.0778,6.425,7.27,1111122 
DISL,ioos:station:DISL:DISL:1,2009-05-04T14:30:00Z,30.2513,-88.0778,6.411,7.3,1111122 
DISL,ioos:station:DISL:DISL:1,2009-05-04T15:00:00Z,30.2513,-88.0778,6.461,7.06,1111122 
DISL,ioos:station:DISL:DISL:1,2009-05-04T15:30:00Z,30.2513,-88.0778,6.479,7.32,1111122 
DISL,ioos:station:DISL:DISL:1,2009-05-04T16:00:00Z,30.2513,-88.0778,6.421,7.39,1111122 
DISL,ioos:station:DISL:DISL:1,2009-05-04T16:30:00Z,30.2513,-88.0778,6.396,7.41,1111122 
DISL,ioos:station:DISL:DISL:1,2009-05-04T17:00:00Z,30.2513,-88.0778,6.432,7.43,1111122 
DISL,ioos:station:DISL:DISL:1,2009-05-04T17:30:00Z,30.2513,-88.0778,6.513,7.43,1111122 
DISL,ioos:station:DISL:DISL:1,2009-05-04T18:00:00Z,30.2513,-88.0778,6.594,7.45,1111122 
DISL,ioos:station:DISL:DISL:1,2009-05-04T18:30:00Z,30.2513,-88.0778,6.597,7.62,1111122 
DISL,ioos:station:DISL:DISL:1,2009-05-04T19:00:00Z,30.2513,-88.0778,6.399,7.54,1111122 
DISL,ioos:station:DISL:DISL:1,2009-05-04T19:30:00Z,30.2513,-88.0778,6.335,7.02,1111122 
DISL,ioos:station:DISL:DISL:1,2009-05-04T20:00:00Z,30.2513,-88.0778,6.24,6.32,1111122 
DISL,ioos:station:DISL:DISL:1,2009-05-04T20:30:00Z,30.2513,-88.0778,0.0,7.45,1111122 
DISL,ioos:station:DISL:DISL:1,2009-05-04T21:00:00Z,30.2513,-88.0778,4.954,6.53,1111122 
DISL,ioos:station:DISL:DISL:1,2009-05-04T21:30:00Z,30.2513,-88.0778,4.915,6.95,1111122 
DISL,ioos:station:DISL:DISL:1,2009-05-04T22:00:00Z,30.2513,-88.0778,4.856,7.65,1111122 
DISL,ioos:station:DISL:DISL:1,2009-05-04T22:30:00Z,30.2513,-88.0778,4.792,7.67,1111122 
DISL,ioos:station:DISL:DISL:1,2009-05-04T23:00:00Z,30.2513,-88.0778,4.783,7.53,1111122 
DISL,ioos:station:DISL:DISL:1,2009-05-04T23:30:00Z,30.2513,-88.0778,4.894,7.81,1111122 
DISL,ioos:station:DISL:DISL:1,2009-05-05T00:00:00Z,30.2513,-88.0778,4.827,7.46,1111122 
DISL,ioos:station:DISL:DISL:1,2009-05-05T00:30:00Z,30.2513,-88.0778,4.846,7.29,1111122 
DISL,ioos:station:DISL:DISL:1,2009-05-05T01:00:00Z,30.2513,-88.0778,4.88,7.32,1111122 
DISL,ioos:station:DISL:DISL:1,2009-05-05T01:30:00Z,30.2513,-88.0778,4.929,7.11,1111122 
DISL,ioos:station:DISL:DISL:1,2009-05-05T02:00:00Z,30.2513,-88.0778,4.867,6.98,1111122 
DISL,ioos:station:DISL:DISL:1,2009-05-05T02:30:00Z,30.2513,-88.0778,4.913,6.79,1111122 
DISL,ioos:station:DISL:DISL:1,2009-05-05T03:00:00Z,30.2513,-88.0778,5.002,6.44,1111122 
DISL,ioos:station:DISL:DISL:1,2009-05-05T03:30:00Z,30.2513,-88.0778,5.003,6.73,1111122 
DISL,ioos:station:DISL:DISL:1,2009-05-05T04:00:00Z,30.2513,-88.0778,4.992,6.72,1111122 
DISL,ioos:station:DISL:DISL:1,2009-05-05T04:30:00Z,30.2513,-88.0778,5.043,6.98,1111122 
DISL,ioos:station:DISL:DISL:1,2009-05-05T05:00:00Z,30.2513,-88.0778,5.016,7.04,1111122 
DISL,ioos:station:DISL:DISL:1,2009-05-05T05:30:00Z,30.2513,-88.0778,5.007,6.94,1111122 
DISL,ioos:station:DISL:DISL:1,2009-05-05T06:00:00Z,30.2513,-88.0778,5.13,6.77,1111122 
DISL,ioos:station:DISL:DISL:1,2009-05-05T06:30:00Z,30.2513,-88.0778,5.117,6.69,1111122 
DISL,ioos:station:DISL:DISL:1,2009-05-05T07:00:00Z,30.2513,-88.0778,5.157,6.61,1111122 
DISL,ioos:station:DISL:DISL:1,2009-05-05T07:30:00Z,30.2513,-88.0778,5.2,6.61,1111122 
DISL,ioos:station:DISL:DISL:1,2009-05-05T08:00:00Z,30.2513,-88.0778,5.243,6.23,1111122 
DISL,ioos:station:DISL:DISL:1,2009-05-05T08:30:00Z,30.2513,-88.0778,5.26,6.33,1111122 
DISL,ioos:station:DISL:DISL:1,2009-05-05T09:00:00Z,30.2513,-88.0778,5.245,6.27,1111122 
DISL,ioos:station:DISL:DISL:1,2009-05-05T09:30:00Z,30.2513,-88.0778,5.364,6.45,1111122 
DISL,ioos:station:DISL:DISL:1,2009-05-05T10:00:00Z,30.2513,-88.0778,5.336,6.47,1111122 
DISL,ioos:station:DISL:DISL:1,2009-05-05T10:30:00Z,30.2513,-88.0778,5.382,6.4,1111122 
DISL,ioos:station:DISL:DISL:1,2009-05-05T11:00:00Z,30.2513,-88.0778,5.467,6.18,1111122 
DISL,ioos:station:DISL:DISL:1,2009-05-05T11:30:00Z,30.2513,-88.0778,5.455,6.2,1111122 
DISL,ioos:station:DISL:DISL:1,2009-05-05T12:00:00Z,30.2513,-88.0778,5.539,6.11,1111122 
DISL,ioos:station:DISL:DISL:1,2009-05-05T12:30:00Z,30.2513,-88.0778,5.571,6.21,1111122 
DISL,ioos:station:DISL:DISL:1,2009-05-05T13:00:00Z,30.2513,-88.0778,5.527,6.31,1111122 
DISL,ioos:station:DISL:DISL:1,2009-05-05T13:30:00Z,30.2513,-88.0778,5.597,6.17,1111122 
DISL,ioos:station:DISL:DISL:1,2009-05-05T14:00:00Z,30.2513,-88.0778,5.552,6.25,1111122 
DISL,ioos:station:DISL:DISL:1,2009-05-05T14:30:00Z,30.2513,-88.0778,5.548,6.34,1111122 
DISL,ioos:station:DISL:DISL:1,2009-05-05T15:00:00Z,30.2513,-88.0778,5.513,6.46,1111122 
DISL,ioos:station:DISL:DISL:1,2009-05-05T15:30:00Z,30.2513,-88.0778,5.505,6.51,1111122 
DISL,ioos:station:DISL:DISL:1,2009-05-05T16:00:00Z,30.2513,-88.0778,5.422,6.63,1111122 
DISL,ioos:station:DISL:DISL:1,2009-05-05T16:30:00Z,30.2513,-88.0778,5.329,6.67,1111122 
DISL,ioos:station:DISL:DISL:1,2009-05-05T17:00:00Z,30.2513,-88.0778,5.249,6.88,1111122 
DISL,ioos:station:DISL:DISL:1,2009-05-05T17:30:00Z,30.2513,-88.0778,5.124,7.02,1111122 
DISL,ioos:station:DISL:DISL:1,2009-05-05T18:00:00Z,30.2513,-88.0778,4.998,7.27,1111122 
DISL,ioos:station:DISL:DISL:1,2009-05-05T18:30:00Z,30.2513,-88.0778,4.952,7.4,1111122 
DISL,ioos:station:DISL:DISL:1,2009-05-05T19:00:00Z,30.2513,-88.0778,4.845,7.59,1111122 
DISL,ioos:station:DISL:DISL:1,2009-05-05T19:30:00Z,30.2513,-88.0778,4.692,7.88,1111122 
DISL,ioos:station:DISL:DISL:1,2009-05-05T20:00:00Z,30.2513,-88.0778,4.608,7.49,1111122 
DISL,ioos:station:DISL:DISL:1,2009-05-05T20:30:00Z,30.2513,-88.0778,4.655,7.72,1111122 
DISL,ioos:station:DISL:DISL:1,2009-05-05T21:00:00Z,30.2513,-88.0778,4.712,7.48,1111122 
DISL,ioos:station:DISL:DISL:1,2009-05-05T21:30:00Z,30.2513,-88.0778,4.735,7.69,1111122 
DISL,ioos:station:DISL:DISL:1,2009-05-05T22:00:00Z,30.2513,-88.0778,4.699,7.46,1111122 
DISL,ioos:station:DISL:DISL:1,2009-05-05T22:30:00Z,30.2513,-88.0778,4.637,7.99,1111122 
DISL,ioos:station:DISL:DISL:1,2009-05-05T23:00:00Z,30.2513,-88.0778,4.526,7.76,1111122 
DISL,ioos:station:DISL:DISL:1,2009-05-05T23:30:00Z,30.2513,-88.0778,4.516,7.74,1111122 
DISL,ioos:station:DISL:DISL:1,2009-05-06T00:00:00Z,30.2513,-88.0778,4.553,7.97,1111122 
DISL,ioos:station:DISL:DISL:1,2009-05-06T00:30:00Z,30.2513,-88.0778,4.608,8.46,1111122 
DISL,ioos:station:DISL:DISL:1,2009-05-06T01:00:00Z,30.2513,-88.0778,4.516,8.16,1111122 
DISL,ioos:station:DISL:DISL:1,2009-05-06T01:30:00Z,30.2513,-88.0778,4.519,8.2,1111122 
DISL,ioos:station:DISL:DISL:1,2009-05-06T02:00:00Z,30.2513,-88.0778,4.567,7.94,1111122 
DISL,ioos:station:DISL:DISL:1,2009-05-06T02:30:00Z,30.2513,-88.0778,4.615,8.21,1111122 
DISL,ioos:station:DISL:DISL:1,2009-05-06T03:00:00Z,30.2513,-88.0778,4.71,7.78,1111122 
DISL,ioos:station:DISL:DISL:1,2009-05-06T03:30:00Z,30.2513,-88.0778,4.719,7.2,1111122 
DISL,ioos:station:DISL:DISL:1,2009-05-06T04:00:00Z,30.2513,-88.0778,4.711,7.27,1111122 
DISL,ioos:station:DISL:DISL:1,2009-05-06T04:30:00Z,30.2513,-88.0778,4.753,7.33,1111122 
DISL,ioos:station:DISL:DISL:1,2009-05-06T05:00:00Z,30.2513,-88.0778,4.757,7.2,1111122 
DISL,ioos:station:DISL:DISL:1,2009-05-06T05:30:00Z,30.2513,-88.0778,4.761,7.15,1111122 
DISL,ioos:station:DISL:DISL:1,2009-05-06T06:00:00Z,30.2513,-88.0778,4.793,7.01,1111122 
DISL,ioos:station:DISL:DISL:1,2009-05-06T06:30:00Z,30.2513,-88.0778,4.842,7.3,1111122 
DISL,ioos:station:DISL:DISL:1,2009-05-06T07:00:00Z,30.2513,-88.0778,4.839,7.06,1111122 
DISL,ioos:station:DISL:DISL:1,2009-05-06T07:30:00Z,30.2513,-88.0778,4.859,6.83,1111122 
DISL,ioos:station:DISL:DISL:1,2009-05-06T08:00:00Z,30.2513,-88.0778,4.925,6.55,1111122 
DISL,ioos:station:DISL:DISL:1,2009-05-06T08:30:00Z,30.2513,-88.0778,4.985,6.48,1111122 
DISL,ioos:station:DISL:DISL:1,2009-05-06T09:00:00Z,30.2513,-88.0778,5.057,6.53,1111122 
DISL,ioos:station:DISL:DISL:1,2009-05-06T09:30:00Z,30.2513,-88.0778,5.167,6.65,1111122 
DISL,ioos:station:DISL:DISL:1,2009-05-06T10:00:00Z,30.2513,-88.0778,5.151,6.53,1111122 
DISL,ioos:station:DISL:DISL:1,2009-05-06T10:30:00Z,30.2513,-88.0778,5.262,6.47,1111122 
DISL,ioos:station:DISL:DISL:1,2009-05-06T11:00:00Z,30.2513,-88.0778,5.13,6.55,1111122 
DISL,ioos:station:DISL:DISL:1,2009-05-06T11:30:00Z,30.2513,-88.0778,5.389,6.49,1111122 
DISL,ioos:station:DISL:DISL:1,2009-05-06T12:00:00Z,30.2513,-88.0778,5.499,6.3,1111122 
DISL,ioos:station:DISL:DISL:1,2009-05-06T12:30:00Z,30.2513,-88.0778,5.529,6.24,1111122 
DISL,ioos:station:DISL:DISL:1,2009-05-06T13:00:00Z,30.2513,-88.0778,5.567,6.2,1111122 
DISL,ioos:station:DISL:DISL:1,2009-05-06T13:30:00Z,30.2513,-88.0778,5.568,6.19,1111122 
DISL,ioos:station:DISL:DISL:1,2009-05-06T14:00:00Z,30.2513,-88.0778,5.563,6.29,1111122 
DISL,ioos:station:DISL:DISL:1,2009-05-06T14:30:00Z,30.2513,-88.0778,5.539,6.38,1111122 
DISL,ioos:station:DISL:DISL:1,2009-05-06T15:00:00Z,30.2513,-88.0778,5.472,6.33,1111122 
DISL,ioos:station:DISL:DISL:1,2009-05-06T15:30:00Z,30.2513,-88.0778,5.427,6.33,1111122 